Location: Izdebno
(52.6670°N, 16.2170°E)
Time: 04:07:22
(UTC+02:00)

Transit 4A - Pass Details

Date: 23 February 2024
Orbit: 871 x 972 km, 66.8° (Epoch: 22 April)

Event Time Altitude Azimuth Distance (km) Brightness Sun altitude
Rises 04:37:12 0° 267° (W) 3,581 - -21.7°
Reaches altitude 10° 04:40:10 10° 280° (W) 2,622 - -21.3°
Exits shadow 04:43:29 24° 309° (NW) 1,813 9.1 -20.8°
Maximum altitude 04:45:17 27° 337° (NNW) 1,662 9.1 -20.5°
Drops below altitude 10° 04:50:19 10° 35° (NE) 2,571 10.8 -19.8°
Sets 04:53:12 0° 47° (NE) 3,499 11.8 -19.4°
